| time (UTC) | temp C | wind direction | speed KPH | gust KPH | rain 1hr cm | rain 24hr cm | rain mn cm | humidity % | barometer mb |
| 20260505230518 | 16 | 346 | 4.8 | 11.3 | 0.00 | 0.08 | 0.08 | 47 | 1010.6 |
| 20260505225515 | 16 | 342 | 4.8 | 11.3 | 0.00 | 0.08 | 0.08 | 50 | 1010.7 |
| 20260505224515 | 17 | 334 | 4.8 | 16.1 | 0.00 | 0.08 | 0.08 | 46 | 1010.7 |
| 20260505223516 | 17 | 285 | 3.2 | 9.7 | 0.00 | 0.08 | 0.08 | 44 | 1010.8 |
| 20260505222516 | 16 | 234 | 6.4 | 16.1 | 0.03 | 0.08 | 0.08 | 46 | 1011.0 |
| 20260505221516 | 16 | 213 | 6.4 | 12.9 | 0.03 | 0.08 | 0.08 | 45 | 1011.1 |
| 20260505220516 | 16 | 207 | 9.7 | 19.3 | 0.03 | 0.08 | 0.08 | 45 | 1011.1 |
| 20260505215516 | 16 | 212 | 8.0 | 17.7 | 0.03 | 0.08 | 0.08 | 46 | 1011.3 |
| 20260505214516 | 16 | 236 | 3.2 | 9.7 | 0.00 | 0.08 | 0.08 | 48 | 1011.5 |
| 20260505213516 | 16 | 229 | 4.8 | 12.9 | 0.00 | 0.05 | 0.05 | 48 | 1011.5 |
| 20260505212517 | 16 | 259 | 4.8 | 9.7 | 0.00 | 0.05 | 0.05 | 45 | 1011.5 |
| 20260505211516 | 16 | 352 | 4.8 | 9.7 | 0.00 | 0.05 | 0.05 | 46 | 1011.5 |
| 20260505210517 | 16 | 22 | 3.2 | 9.7 | 0.00 | 0.05 | 0.05 | 46 | 1011.6 |
| 20260505205517 | 17 | 4 | 4.8 | 12.9 | 0.00 | 0.05 | 0.05 | 44 | 1011.5 |
| 20260505204517 | 16 | 353 | 4.8 | 11.3 | 0.00 | 0.05 | 0.05 | 44 | 1011.8 |
| 20260505203517 | 16 | 336 | 4.8 | 19.3 | 0.00 | 0.05 | 0.05 | 45 | 1011.9 |
| 20260505202517 | 16 | 9 | 6.4 | 11.3 | 0.00 | 0.05 | 0.05 | 46 | 1012.1 |
| 20260505201518 | 16 | 343 | 4.8 | 11.3 | 0.00 | 0.05 | 0.05 | 45 | 1012.3 |
| 20260505200517 | 15 | 359 | 4.8 | 12.9 | 0.00 | 0.05 | 0.05 | 48 | 1012.3 |
| 20260505195517 | 15 | 347 | 4.8 | 12.9 | 0.00 | 0.05 | 0.05 | 47 | 1012.4 |
| 20260505194558 | 15 | 341 | 4.8 | 12.9 | 0.00 | 0.05 | 0.05 | 46 | 1012.5 |
| 20260505193518 | 15 | 349 | 4.8 | 11.3 | 0.00 | 0.05 | 0.05 | 47 | 1012.6 |
| 20260505192515 | 15 | 266 | 4.8 | 11.3 | 0.00 | 0.05 | 0.05 | 47 | 1012.6 |
| 20260505191515 | 15 | 300 | 3.2 | 9.7 | 0.00 | 0.05 | 0.05 | 47 | 1012.7 |
| 20260505190515 | 14 | 333 | 3.2 | 8.0 | 0.03 | 0.05 | 0.05 | 49 | 1012.8 |
| 20260505185516 | 14 | 308 | 3.2 | 11.3 | 0.03 | 0.05 | 0.05 | 48 | 1012.8 |
| 20260505184515 | 14 | 337 | 4.8 | 12.9 | 0.03 | 0.05 | 0.05 | 48 | 1012.8 |
| 20260505183516 | 14 | 285 | 3.2 | 8.0 | 0.03 | 0.05 | 0.05 | 50 | 1012.9 |
| 20260505182516 | 14 | 338 | 1.6 | 6.4 | 0.03 | 0.05 | 0.05 | 49 | 1012.8 |
| 20260505181516 | 15 | 271 | 3.2 | 8.0 | 0.03 | 0.05 | 0.05 | 51 | 1012.8 |
| 20260505180516 | 15 | 338 | 4.8 | 9.7 | 0.00 | 0.03 | 0.03 | 45 | 1012.6 |
| 20260505175516 | 15 | 314 | 3.2 | 9.7 | 0.00 | 0.03 | 0.03 | 44 | 1012.6 |
| 20260505174516 | 15 | 333 | 3.2 | 9.7 | 0.00 | 0.03 | 0.03 | 43 | 1012.5 |
| 20260505173517 | 15 | 335 | 3.2 | 6.4 | 0.00 | 0.03 | 0.03 | 40 | 1012.4 |
| 20260505172537 | 14 | 19 | 3.2 | 8.0 | 0.00 | 0.03 | 0.03 | 44 | 1012.3 |
| 20260505171517 | 14 | 354 | 3.2 | 8.0 | 0.00 | 0.03 | 0.03 | 43 | 1012.4 |
| 20260505170517 | 14 | 347 | 3.2 | 8.0 | 0.00 | 0.03 | 0.03 | 42 | 1012.6 |
| 20260505165517 | 15 | 10 | 3.2 | 12.9 | 0.00 | 0.03 | 0.03 | 41 | 1012.7 |
| 20260505164517 | 13 | 345 | 3.2 | 8.0 | 0.00 | 0.03 | 0.03 | 45 | 1012.6 |
| 20260505163517 | 13 | 351 | 4.8 | 11.3 | 0.00 | 0.03 | 0.03 | 45 | 1012.7 |
| 20260505162518 | 13 | 350 | 4.8 | 12.9 | 0.00 | 0.03 | 0.03 | 49 | 1012.7 |
| 20260505161537 | 12 | 347 | 6.4 | 12.9 | 0.00 | 0.03 | 0.03 | 50 | 1012.8 |
| 20260505160518 | 12 | 0 | 8.0 | 17.7 | 0.00 | 0.03 | 0.03 | 51 | 1013.0 |
| 20260505152515 | 12 | 337 | 8.0 | 14.5 | 0.03 | 0.03 | 0.03 | 53 | 1013.5 |
| 20260505151516 | 12 | 339 | 8.0 | 17.7 | 0.03 | 0.03 | 0.03 | 57 | 1013.5 |
| 20260505150516 | 11 | 344 | 6.4 | 12.9 | 0.03 | 0.03 | 0.03 | 60 | 1013.5 |
| 20260505140516 | 12 | 348 | 6.4 | 17.7 | 0.00 | 0.00 | 0.00 | 56 | 1013.6 |
| 20260505124518 | 14 | 335 | 1.6 | 6.4 | 0.00 | 0.00 | 0.00 | 37 | 1012.4 |
| 20260505123558 | 14 | 270 | 1.6 | 4.8 | 0.00 | 0.00 | 0.00 | 37 | 1012.5 |
| 20260505122518 | 14 | 259 | 1.6 | 6.4 | 0.00 | 0.00 | 0.00 | 37 | 1012.4 |
| 20260505121519 | 14 | 243 | 3.2 | 6.4 | 0.00 | 0.00 | 0.00 | 37 | 1012.4 |
| 20260505120515 | 14 | 243 | 1.6 | 6.4 | 0.00 | 0.00 | 0.00 | 36 | 1012.3 |
| 20260505115536 | 14 | 250 | 3.2 | 8.0 | 0.00 | 0.00 | 0.00 | 36 | 1012.2 |
| 20260505114516 | 14 | 243 | 3.2 | 8.0 | 0.00 | 0.00 | 0.00 | 36 | 1012.3 |
| 20260505113515 | 14 | 254 | 1.6 | 6.4 | 0.00 | 0.00 | 0.00 | 36 | 1012.1 |
| 20260505112515 | 14 | 299 | 1.6 | 4.8 | 0.00 | 0.00 | 0.00 | 36 | 1012.1 |
| 20260505111516 | 14 | 344 | 1.6 | 6.4 | 0.00 | 0.00 | 0.00 | 35 | 1012.0 |
| 20260505110516 | 14 | 341 | 1.6 | 4.8 | 0.00 | 0.00 | 0.00 | 35 | 1012.2 |
| 20260505101517 | 15 | 266 | 1.6 | 4.8 | 0.00 | 0.00 | 0.00 | 34 | 1012.3 |
| 20260505100518 | 15 | 249 | 1.6 | 4.8 | 0.00 | 0.00 | 0.00 | 33 | 1012.2 |
| 20260505095518 | 15 | 258 | 1.6 | 4.8 | 0.00 | 0.00 | 0.00 | 33 | 1012.2 |
| 20260505094517 | 15 | 256 | 1.6 | 4.8 | 0.00 | 0.00 | 0.00 | 34 | 1012.2 |
| 20260505093518 | 15 | 288 | 0.0 | 3.2 | 0.00 | 0.00 | 0.00 | 33 | 1012.2 |
| 20260505092518 | 15 | 204 | 0.0 | 3.2 | 0.00 | 0.00 | 0.00 | 32 | 1012.3 |
| 20260505091515 | 15 | 7 | 0.0 | 3.2 | 0.00 | 0.00 | 0.00 | 32 | 1012.2 |
| 20260505090515 | 15 | 299 | 1.6 | 4.8 | 0.00 | 0.00 | 0.00 | 32 | 1012.2 |
| 20260505085515 | 15 | 250 | 1.6 | 4.8 | 0.00 | 0.00 | 0.00 | 33 | 1012.4 |
| 20260505084516 | 16 | 354 | 1.6 | 3.2 | 0.00 | 0.00 | 0.00 | 32 | 1012.4 |
| 20260505083516 | 16 | 351 | 3.2 | 6.4 | 0.00 | 0.00 | 0.00 | 32 | 1012.6 |
| 20260505082516 | 16 | 330 | 3.2 | 11.3 | 0.00 | 0.00 | 0.00 | 32 | 1012.5 |
| 20260505081516 | 16 | 277 | 3.2 | 8.0 | 0.00 | 0.00 | 0.00 | 32 | 1012.7 |
| 20260505080516 | 16 | 251 | 3.2 | 9.7 | 0.00 | 0.00 | 0.00 | 31 | 1012.8 |
| 20260505075536 | 16 | 279 | 3.2 | 8.0 | 0.00 | 0.00 | 0.00 | 31 | 1013.0 |
| 20260505074517 | 16 | 265 | 1.6 | 6.4 | 0.00 | 0.00 | 0.00 | 31 | 1012.8 |
| 20260505073516 | 16 | 277 | 3.2 | 9.7 | 0.00 | 0.00 | 0.00 | 30 | 1012.8 |
| 20260505072517 | 17 | 261 | 3.2 | 8.0 | 0.00 | 0.00 | 0.00 | 30 | 1012.7 |
| 20260505071537 | 17 | 264 | 3.2 | 12.9 | 0.00 | 0.00 | 0.00 | 29 | 1012.8 |
| 20260505070537 | 17 | 263 | 3.2 | 11.3 | 0.00 | 0.00 | 0.00 | 28 | 1012.6 |
| 20260505065517 | 17 | 242 | 6.4 | 16.1 | 0.00 | 0.00 | 0.00 | 27 | 1012.4 |
| 20260505064517 | 17 | 244 | 4.8 | 12.9 | 0.00 | 0.00 | 0.00 | 27 | 1012.3 |
| 20260505063517 | 17 | 246 | 4.8 | 11.3 | 0.00 | 0.00 | 0.00 | 27 | 1012.2 |
| 20260505062518 | 18 | 249 | 4.8 | 11.3 | 0.00 | 0.00 | 0.00 | 26 | 1012.1 |
| 20260505061517 | 18 | 245 | 4.8 | 12.9 | 0.00 | 0.00 | 0.00 | 26 | 1012.1 |
| 20260505060518 | 18 | 255 | 4.8 | 12.9 | 0.00 | 0.00 | 0.00 | 25 | 1012.1 |
| 20260505055518 | 18 | 252 | 4.8 | 11.3 | 0.00 | 0.00 | 0.00 | 25 | 1012.0 |
| 20260505054518 | 18 | 252 | 4.8 | 14.5 | 0.00 | 0.00 | 0.00 | 24 | 1012.0 |
| 20260505053515 | 18 | 268 | 3.2 | 9.7 | 0.00 | 0.00 | 0.00 | 24 | 1012.1 |
| 20260505052515 | 18 | 268 | 3.2 | 12.9 | 0.00 | 0.00 | 0.00 | 24 | 1012.0 |
| 20260505051515 | 18 | 285 | 1.6 | 8.0 | 0.00 | 0.00 | 0.00 | 24 | 1011.9 |
| 20260505050515 | 18 | 267 | 1.6 | 4.8 | 0.00 | 0.00 | 0.00 | 24 | 1011.9 |
| 20260505041517 | 20 | 261 | 3.2 | 6.4 | 0.00 | 0.00 | 0.00 | 24 | 1011.7 |
| 20260505040536 | 20 | 262 | 3.2 | 8.0 | 0.00 | 0.00 | 0.00 | 24 | 1011.7 |
| 20260505035517 | 20 | 271 | 1.6 | 4.8 | 0.00 | 0.00 | 0.00 | 24 | 1011.6 |
| 20260505034516 | 20 | 275 | 1.6 | 6.4 | 0.00 | 0.00 | 0.00 | 24 | 1011.6 |
| 20260505033517 | 20 | 272 | 3.2 | 6.4 | 0.00 | 0.00 | 0.00 | 24 | 1011.4 |
| 20260505032517 | 20 | 264 | 3.2 | 4.8 | 0.00 | 0.00 | 0.00 | 23 | 1011.3 |
| 20260505031517 | 20 | 252 | 3.2 | 9.7 | 0.00 | 0.00 | 0.00 | 23 | 1011.2 |
| 20260505030557 | 20 | 283 | 3.2 | 9.7 | 0.00 | 0.00 | 0.00 | 23 | 1011.1 |
| 20260505025517 | 21 | 275 | 3.2 | 8.0 | 0.00 | 0.00 | 0.00 | 22 | 1011.0 |
| 20260505024517 | 21 | 282 | 3.2 | 8.0 | 0.00 | 0.00 | 0.00 | 22 | 1010.9 |
| 20260505023517 | 21 | 266 | 3.2 | 12.9 | 0.00 | 0.00 | 0.00 | 22 | 1010.8 |
| 20260505022518 | 21 | 272 | 3.2 | 11.3 | 0.00 | 0.00 | 0.00 | 21 | 1010.8 |
| 20260505021515 | 21 | 277 | 3.2 | 9.7 | 0.00 | 0.00 | 0.00 | 20 | 1010.7 |
| 20260505020538 | 21 | 269 | 3.2 | 9.7 | 0.00 | 0.00 | 0.00 | 20 | 1010.5 |
| 20260505015515 | 22 | 266 | 3.2 | 9.7 | 0.00 | 0.00 | 0.00 | 21 | 1010.3 |
| 20260505014516 | 22 | 302 | 3.2 | 8.0 | 0.00 | 0.00 | 0.00 | 20 | 1010.3 |
| 20260505013516 | 22 | 277 | 3.2 | 9.7 | 0.00 | 0.00 | 0.00 | 20 | 1010.2 |
| 20260505012516 | 22 | 276 | 3.2 | 12.9 | 0.00 | 0.00 | 0.00 | 20 | 1010.0 |
| 20260505011516 | 22 | 258 | 4.8 | 17.7 | 0.00 | 0.00 | 0.00 | 19 | 1009.9 |
| 20260505010556 | 22 | 284 | 3.2 | 8.0 | 0.00 | 0.00 | 0.00 | 19 | 1010.0 |
| 20260505005516 | 23 | 270 | 4.8 | 11.3 | 0.00 | 0.00 | 0.00 | 19 | 1010.0 |
| 20260505004516 | 23 | 249 | 6.4 | 16.1 | 0.00 | 0.00 | 0.00 | 18 | 1010.0 |
| 20260505003516 | 23 | 246 | 6.4 | 17.7 | 0.00 | 0.00 | 0.00 | 18 | 1010.0 |
| 20260505002517 | 23 | 254 | 4.8 | 14.5 | 0.00 | 0.00 | 0.00 | 17 | 1010.0 |
| 20260505001516 | 23 | 253 | 3.2 | 11.3 | 0.00 | 0.00 | 0.00 | 16 | 1010.1 |
| 20260505000517 | 23 | 252 | 4.8 | 12.9 | 0.00 | 0.00 | 0.00 | 16 | 1010.1 |
| 20260504235517 | 23 | 251 | 6.4 | 14.5 | 0.00 | 0.00 | 0.00 | 16 | 1010.0 |
| 20260504234517 | 23 | 246 | 6.4 | 19.3 | 0.00 | 0.00 | 0.00 | 16 | 1010.1 |
| 20260504233517 | 23 | 265 | 4.8 | 11.3 | 0.00 | 0.00 | 0.00 | 15 | 1010.2 |
| 20260504232517 | 23 | 257 | 4.8 | 17.7 | 0.00 | 0.00 | 0.00 | 14 | 1010.2 |
| 20260504231518 | 23 | 262 | 4.8 | 12.9 | 0.00 | 0.00 | 0.00 | 14 | 1010.1 |